Wind_Speed
24 26 28 29 30 33 34 35 36 36 35 36 37 38 38 38 39 39 39 40 40 41 42 43 43 44 45 46 46 46 46 46 46 46 45 45 44 44 43 42 41 40 38 37 36 35 34 33 31 30 29 28 27 26 25 24 23 21 20 20 19 19 19 18 12 9 15 16 14 15 16 17 19 19 19 20 19 19 19 20 22 24 24 25 25
25 27 28 29 32 33 33 32 32 33 35 36 37 38 39 40 41 40 41 42 41 42 43 43 43 44 45 46 46 46 46 47 47 47 47 46 45 45 45 44 43 41 39 39 38 36 35 33 32 31 29 29 28 27 26 25 24 24 23 22 21 21 20 21 17 11 15 18 16 16 17 16 16 16 16 18 19 18 18 20 21 22 22 23 25
25 28 29 31 33 33 33 33 32 32 34 36 38 40 42 42 41 42 43 42 42 43 43 43 43 44 44 45 45 46 47 47 48 49 49 49 48 47 47 47 45 44 43 42 40 39 36 35 33 32 31 30 29 28 27 26 26 25 24 23 22 21 21 21 20 16 15 16 14 12 11 11 13 15 16 17 17 16 17 20 20 19 20 21 23
23 24 27 30 32 32 34 34 34 35 36 37 40 42 43 42 42 43 43 41 41 42 43 43 44 44 44 45 46 47 48 48 49 49 50 50 50 49 48 48 47 46 46 45 43 41 39 37 36 34 33 32 31 29 28 28 27 26 25 24 22 21 21 22 22 19 15 13 12 11 10 12 14 15 15 16 16 15 17 18 18 18 19 19 22
25 24 25 28 30 32 34 34 34 36 38 40 42 42 42 41 41 42 41 41 41 41 42 43 44 44 46 46 48 49 49 49 49 49 49 49 49 48 48 48 48 47 46 45 44 43 42 40 39 37 35 34 33 32 31 30 29 27 26 25 23 22 21 21 21 19 15 13 13 14 13 14 15 15 14 14 15 15 16 17 16 17 17 18 21
29 26 24 25 27 29 31 32 34 37 39 42 42 41 40 40 40 41 41 41 41 41 43 44 44 45 46 47 48 48 48 47 48 48 48 48 47 46 46 46 47 46 46 45 45 45 44 42 41 39 39 38 36 35 33 32 30 29 28 26 24 22 21 20 18 16 14 13 12 13 14 14 14 14 12 11 13 15 16 17 16 17 18 19 21
34 31 29 26 25 26 28 30 33 36 39 41 41 40 39 39 40 41 41 41 41 41 42 43 45 46 46 46 46 46 46 46 47 47 47 47 47 46 46 46 45 45 45 45 45 45 45 43 42 41 41 40 39 37 35 33 32 30 29 27 24 23 21 19 16 14 12 11 10 12 14 14 14 12 9 9 10 12 14 16 17 18 20 21 22
34 34 32 30 29 29 30 30 31 34 37 38 38 38 38 39 40 40 40 41 42 42 43 44 44 43 43 44 44 44 44 45 46 46 46 46 46 47 47 46 45 44 44 44 44 44 44 43 43 42 41 40 39 37 36 34 33 31 29 27 25 23 21 18 15 12 10 9 9 10 12 12 11 9 7 7 7 10 13 16 19 21 21 21 22
31 31 30 29 30 31 31 31 31 33 35 36 37 37 38 38 38 38 40 41 42 42 42 42 41 41 41 41 41 42 44 45 47 47 46 46 46 46 46 46 45 45 44 43 43 43 43 42 42 41 40 39 37 36 34 33 32 31 30 28 26 24 21 17 14 11 10 10 9 9 9 10 8 6 5 4 6 11 14 17 19 20 21 22 20
31 31 31 31 31 31 30 30 30 31 33 35 36 37 37 37 37 38 39 40 40 39 39 40 41 41 41 40 40 41 44 45 47 48 49 48 47 46 44 44 44 44 43 42 41 41 41 42 41 40 39 38 36 35 33 31 30 29 27 27 27 25 22 18 14 12 12 12 11 9 8 8 7 5 5 6 8 12 15 16 17 18 21 20 17
31 30 30 31 32 31 30 28 27 28 30 32 35 36 36 36 36 36 37 37 37 37 38 40 41 41 40 40 41 42 44 45 46 47 49 49 48 46 45 44 43 42 42 42 42 41 41 41 40 39 38 38 36 34 32 30 29 27 25 24 25 24 22 19 16 15 15 14 12 10 9 9 7 5 6 8 10 12 13 14 16 18 18 16 15
32 30 30 31 32 31 30 29 26 25 25 27 30 32 33 33 33 33 34 35 36 37 39 41 41 41 40 41 42 43 43 44 45 46 48 49 49 47 46 44 44 43 43 42 42 42 41 41 41 39 38 38 36 33 31 29 27 26 24 23 22 21 18 16 15 16 16 16 15 13 10 8 6 6 7 9 11 11 12 14 15 16 17 16 16
29 30 31 32 34 34 34 33 31 28 26 25 26 27 29 30 31 31 33 34 34 36 38 39 40 40 40 40 41 42 42 42 43 45 47 48 50 48 45 44 44 44 43 43 42 42 42 42 41 39 37 36 35 33 31 28 25 24 23 23 22 20 17 15 13 13 15 16 16 14 11 8 6 8 9 10 11 12 12 13 14 15 16 15 18
29 29 30 32 34 36 38 38 37 36 32 28 25 24 26 28 29 30 31 31 32 35 37 38 38 38 39 39 39 39 40 41 41 43 45 46 48 48 45 42 42 43 42 42 42 42 44 45 43 41 38 36 35 35 33 30 28 26 25 25 23 22 20 18 16 15 16 16 17 16 13 10 9 10 10 9 10 12 12 12 13 15 18 20 25
32 31 32 33 34 35 37 37 38 38 37 32 27 24 24 26 28 29 29 30 32 34 35 36 36 36 37 37 37 37 39 39 39 41 43 43 44 45 43 41 39 39 39 40 40 41 44 46 45 43 41 38 37 37 35 33 31 29 29 28 26 24 22 22 20 20 20 19 19 17 13 10 10 10 9 8 9 12 13 14 17 20 24 27 30
32 33 34 36 37 37 37 37 37 37 37 34 30 27 25 25 26 27 28 29 31 31 32 33 34 35 35 36 37 36 37 37 38 39 40 40 40 41 42 40 38 38 38 39 39 38 40 43 43 41 40 38 37 37 36 35 33 33 32 30 27 25 24 24 21 20 20 19 17 14 10 9 9 9 9 10 11 13 15 18 22 23 23 23 25
28 30 32 34 37 38 39 38 37 37 36 34 32 30 28 26 26 25 25 27 28 29 31 32 33 34 34 35 36 35 34 35 38 38 37 39 40 40 40 39 37 36 36 37 37 37 38 41 43 41 39 39 37 35 34 34 34 34 32 30 27 24 23 22 19 18 18 17 14 12 10 10 10 10 11 10 9 11 15 19 22 21 18 15 15
27 28 30 32 34 36 36 36 36 36 36 35 34 33 31 28 27 25 25 27 28 29 31 31 31 32 33 34 35 35 34 34 36 36 36 39 40 40 39 37 35 34 33 33 34 35 35 38 41 41 40 39 36 32 31 32 35 35 33 30 27 24 24 22 20 17 16 15 14 13 11 11 11 12 12 11 10 12 15 19 21 19 16 13 13
29 30 31 32 33 34 34 34 34 34 35 35 35 34 33 31 28 26 25 27 28 29 29 29 30 31 32 33 34 34 33 33 34 35 36 37 39 40 39 37 35 34 33 32 32 32 32 34 37 39 39 37 35 31 30 32 35 36 33 28 25 24 25 23 21 19 18 17 16 15 14 13 12 13 15 15 15 17 18 19 18 15 15 16 15
29 31 32 33 33 33 33 33 33 33 33 34 35 34 33 32 29 27 26 27 28 28 28 29 30 30 30 31 32 33 33 32 33 34 35 36 38 39 40 38 35 33 32 32 32 31 31 32 34 36 37 36 34 30 29 31 33 33 30 27 25 24 23 21 21 20 19 17 16 15 14 13 13 15 17 18 18 18 18 16 14 12 14 17 17
30 31 33 34 32 31 31 31 33 33 33 33 34 34 34 32 30 28 27 27 27 27 28 28 28 28 28 29 31 32 33 34 34 34 34 36 39 40 40 40 38 35 34 33 33 33 32 33 33 33 34 35 33 30 29 30 30 29 28 26 24 22 20 21 21 18 16 16 15 15 15 15 16 17 18 19 18 17 16 14 13 13 14 17 19
31 33 33 32 30 29 30 32 33 34 34 33 32 34 34 32 30 28 27 27 27 28 27 26 25 25 26 28 30 31 32 34 35 35 34 35 38 40 40 40 38 36 34 32 32 32 33 35 36 34 32 32 32 31 29 29 28 27 26 24 21 19 20 22 21 17 16 16 15 15 16 16 16 16 16 17 16 15 16 15 15 14 14 17 19
33 33 32 29 29 30 31 33 33 33 34 33 32 33 33 32 30 28 27 26 26 26 25 24 23 22 23 25 28 30 31 32 34 37 37 35 36 38 38 39 38 36 34 33 32 32 35 38 37 33 29 29 30 29 28 28 27 26 25 22 21 21 22 21 19 17 17 16 15 16 16 15 15 15 15 15 15 15 16 16 16 16 17 19 21
32 32 31 31 33 35 35 36 36 35 35 34 32 31 32 31 29 28 27 26 25 24 23 22 21 20 20 23 25 28 30 30 32 36 37 37 37 35 34 36 37 36 33 31 30 32 35 38 37 32 28 28 28 28 27 27 26 25 24 23 23 23 23 20 18 17 17 16 16 16 15 14 13 13 13 14 15 16 17 17 18 19 19 22 25
29 31 33 36 39 40 39 40 39 36 35 33 31 31 30 29 28 28 27 25 24 23 21 21 21 20 19 20 23 26 28 29 30 33 35 36 38 36 34 35 36 35 33 30 28 30 34 35 32 29 27 27 27 26 26 26 25 22 22 24 25 24 22 20 18 18 17 16 15 14 12 11 11 11 12 14 15 17 19 19 20 21 22 24 27
30 32 36 40 41 41 40 40 39 37 34 32 31 31 29 28 28 28 26 25 25 23 22 21 21 20 19 20 23 26 28 28 29 31 32 33 34 35 35 35 35 36 36 33 29 29 29 28 26 25 25 27 27 27 26 25 23 22 22 24 25 23 21 21 19 18 17 14 12 12 10 10 10 11 12 14 16 18 19 20 22 23 23 25 27
32 35 37 39 39 39 38 37 37 36 34 31 30 30 30 29 28 27 26 25 24 23 22 21 19 19 19 19 21 25 28 29 28 29 30 31 31 32 33 35 35 36 37 35 33 31 29 27 27 26 25 25 25 25 25 24 23 23 23 22 22 21 20 19 17 15 13 12 10 9 9 9 10 11 13 15 17 18 18 19 21 23 23 23 26
32 35 38 39 38 37 36 34 34 35 34 31 29 28 28 28 28 30 31 29 26 24 23 23 23 22 21 20 22 26 28 28 29 31 32 33 33 31 31 33 34 34 34 34 33 32 31 29 27 27 26 24 23 24 25 24 23 23 22 20 19 19 17 16 14 12 11 10 8 7 8 9 10 12 13 15 17 18 18 19 21 22 23 22 22
34 36 39 38 36 35 33 31 32 33 34 33 31 30 31 30 30 33 35 36 35 32 29 28 28 28 26 24 25 26 27 29 34 37 36 35 35 34 33 35 36 35 35 36 35 33 31 31 30 29 28 26 25 25 26 25 23 21 20 19 18 18 17 15 13 11 9 7 7 7 7 9 11 12 13 16 18 18 18 19 20 22 22 21 21
34 36 36 35 34 33 31 30 32 33 32 30 29 30 32 33 34 35 36 37 38 39 37 35 33 31 29 29 30 31 33 35 35 33 33 33 35 35 34 34 36 35 36 38 39 36 33 32 32 32 31 30 28 27 27 27 25 22 20 19 19 18 16 15 12 9 8 7 7 7 8 9 11 12 13 15 18 18 18 18 19 21 21 21 23
31 32 34 34 34 33 32 32 33 32 30 28 26 27 29 30 32 34 35 35 35 36 37 36 33 30 29 30 31 31 32 31 27 28 31 34 35 35 33 32 34 36 38 39 37 34 32 30 29 30 31 30 29 29 29 28 26 24 22 21 20 19 17 14 12 10 9 8 7 7 8 9 11 12 13 15 17 19 19 19 19 20 21 22 23
30 33 36 35 33 31 30 30 30 28 27 26 25 25 25 24 24 26 29 31 31 31 32 32 31 29 28 27 28 29 28 25 24 28 33 34 35 37 35 33 35 37 39 39 35 31 30 30 28 28 30 29 28 30 31 30 28 27 25 23 22 20 16 13 11 10 9 7 7 7 8 9 10 11 13 14 16 18 19 18 19 20 21 23 24
33 36 36 34 31 28 27 27 27 25 24 23 23 22 21 18 17 18 21 25 29 32 32 32 31 30 28 26 27 28 28 26 26 29 32 33 35 37 36 35 37 39 40 38 32 28 28 28 27 29 30 30 30 32 33 31 29 28 26 25 22 19 16 13 11 10 8 7 7 7 7 9 10 11 13 14 16 18 19 19 19 20 20 22 23
32 34 34 32 30 27 25 24 23 22 22 23 22 23 23 23 20 18 16 15 17 23 29 30 30 29 28 27 26 26 27 27 28 30 32 33 35 37 36 35 37 41 42 38 32 29 29 28 28 30 31 31 32 34 34 31 30 28 26 24 21 17 15 13 11 9 8 7 7 7 8 8 8 10 12 14 16 18 20 19 20 20 19 20 23
32 33 33 33 31 28 26 26 26 26 26 26 26 25 26 25 23 21 18 14 12 15 21 25 28 28 28 28 27 26 27 28 29 31 33 33 35 37 36 33 34 37 37 36 33 32 32 31 31 32 32 32 33 35 34 32 30 28 26 23 19 16 14 12 10 9 8 7 7 8 7 7 8 10 12 15 17 18 20 20 20 20 21 22 24
33 33 33 32 32 33 34 35 33 32 30 28 28 29 29 26 23 22 21 19 17 16 17 21 24 26 27 28 26 25 27 28 29 31 33 34 37 38 35 31 30 29 29 30 32 33 33 33 32 32 32 33 34 35 33 31 29 26 23 20 17 15 13 11 9 8 8 7 7 6 5 6 9 11 14 16 18 18 20 22 22 21 22 23 23
36 35 34 33 33 35 36 36 33 32 31 29 29 29 29 27 23 20 19 18 17 16 16 17 18 18 21 25 26 25 26 27 28 30 32 34 37 38 34 30 28 26 25 28 31 31 30 30 31 32 33 34 34 33 31 29 26 24 21 18 16 13 11 10 8 7 7 6 5 5 6 8 10 12 14 16 18 18 20 22 23 23 23 23 23
35 35 33 33 32 31 31 30 29 28 29 28 27 26 26 25 22 19 17 16 16 16 16 16 16 16 18 22 25 26 26 26 26 28 30 33 35 35 32 29 27 26 27 29 31 31 30 29 30 33 35 35 34 32 30 27 24 22 19 17 15 12 10 9 7 5 5 5 5 5 7 8 9 12 14 16 18 19 20 21 22 23 23 23 22
33 33 34 34 33 31 29 28 27 25 24 23 23 23 23 22 19 17 16 16 16 16 15 15 16 17 19 21 23 24 24 23 24 25 27 30 33 32 30 28 26 26 28 29 29 29 29 30 31 33 34 34 32 30 27 25 22 20 18 16 14 12 10 8 6 4 4 4 5 5 6 8 10 12 14 17 19 20 21 21 22 22 24 25 24
33 32 32 31 30 29 28 27 26 24 23 23 23 22 21 19 17 17 16 15 14 15 16 16 17 19 21 22 25 26 24 22 23 24 25 26 28 28 28 28 27 28 29 29 29 29 31 32 33 33 32 31 29 26 24 22 20 18 16 14 12 11 8 7 5 4 4 4 5 5 6 8 10 13 16 18 19 20 20 22 23 24 25 26 28
30 28 28 28 28 27 27 26 26 26 26 25 24 24 22 19 17 17 16 15 15 15 16 17 17 20 22 24 27 28 26 23 23 23 23 23 24 26 27 29 31 32 32 31 31 32 33 33 32 31 30 28 25 24 22 20 18 17 15 13 11 9 7 6 5 4 3 4 5 6 7 9 11 14 17 18 19 20 22 23 25 25 25 26 28
29 27 27 27 26 26 25 25 25 25 26 25 25 24 23 20 18 17 16 16 15 15 15 15 17 19 22 25 28 30 27 23 22 21 21 22 24 26 28 30 31 33 33 33 34 34 34 33 31 29 28 26 25 23 21 19 17 15 13 11 10 9 7 6 4 3 3 5 6 6 8 10 13 15 17 18 20 22 23 25 25 25 24 27 29
29 27 26 26 25 24 24 23 23 23 23 23 24 24 23 21 19 18 16 15 15 15 14 14 15 17 20 25 30 30 24 20 20 22 22 24 26 27 29 31 31 31 32 32 32 32 32 31 29 26 25 23 22 20 18 17 15 13 12 11 9 8 7 5 4 4 4 5 7 7 9 12 14 16 18 19 21 22 23 24 25 25 25 28 31
27 26 26 25 25 24 24 24 23 23 22 22 23 23 22 20 18 17 16 15 15 15 14 14 16 17 19 22 25 24 21 21 22 24 25 26 28 29 30 32 31 32 32 31 30 30 29 28 27 25 23 21 19 17 15 14 13 11 11 9 8 8 6 5 4 4 5 6 7 8 11 13 14 16 19 20 21 23 24 23 24 25 27 29 29
26 25 24 24 23 22 22 22 22 22 21 21 20 19 18 17 16 15 14 13 13 14 14 14 15 16 16 17 19 21 23 24 25 25 27 28 29 30 31 32 32 33 33 31 29 28 27 26 25 24 22 20 18 16 14 13 11 10 9 8 7 6 5 4 4 5 6 7 8 10 12 13 15 18 20 21 23 25 25 24 24 25 27 28 27
25 24 23 22 21 20 20 20 20 20 19 19 17 14 13 13 13 12 13 13 13 13 13 13 15 17 18 20 22 23 25 26 27 27 27 29 31 32 33 33 32 32 31 29 27 25 24 23 22 21 20 18 16 14 13 11 9 8 7 6 5 5 4 5 6 6 7 8 10 12 13 14 16 19 20 23 27 27 25 24 24 26 27 28 28
22 20 19 19 17 16 17 17 16 15 14 13 10 9 9 9 10 11 12 13 14 15 16 17 18 19 20 22 23 24 26 28 29 28 30 33 36 36 35 34 33 31 29 27 25 24 23 21 20 18 17 16 15 13 11 10 8 7 6 5 5 5 5 5 7 8 8 9 11 12 13 15 18 20 23 27 29 27 23 24 26 27 28 28 27
18 16 15 13 11 9 7 6 3 1 1 4 6 8 9 10 11 12 13 15 16 17 18 19 19 20 21 22 23 25 27 29 30 30 33 37 37 36 34 33 31 29 27 26 25 23 22 20 19 17 16 15 13 11 10 8 7 6 5 5 5 5 5 7 8 8 9 10 11 12 13 15 19 22 25 27 26 23 23 26 27 27 28 28 27
16 15 13 12 11 10 9 9 9 9 10 11 12 12 13 14 14 15 16 17 17 17 19 19 20 21 22 23 24 26 29 32 33 33 35 36 35 32 31 30 28 27 26 25 24 22 20 19 17 16 15 13 11 10 8 7 6 5 4 4 5 5 6 7 8 8 10 11 11 11 13 17 21 24 25 25 23 22 25 28 27 27 28 27 27
17 16 15 14 14 13 13 13 13 13 13 14 14 14 15 16 16 16 18 19 18 18 19 20 21 21 23 25 27 28 29 32 35 36 36 34 32 30 29 28 26 25 24 23 21 20 18 17 15 14 12 11 9 8 6 5 4 4 4 4 5 5 6 7 8 9 10 9 9 12 16 19 23 25 25 23 22 23 26 27 27 27 27 26 26
18 18 17 17 16 16 15 15 15 15 14 15 15 15 15 16 16 17 18 19 19 20 20 20 21 21 22 24 27 28 30 32 35 35 34 32 30 28 27 26 25 24 22 21 19 18 16 14 13 11 9 8 6 5 4 4 4 4 4 4 5 5 6 7 8 8 8 8 10 14 17 20 23 25 23 21 22 25 26 27 26 26 26 26 27
Wind_Direction
269 264 259 256 254 250 245 240 237 236 235 234 234 234 234 233 232 231 229 227 223 220 219 218 217 216 215 214 214 214 213 213 213 213 213 213 214 214 215 215 215 215 215 214 214 214 214 213 213 212 210 209 208 207 207 208 209 209 208 205 201 199 197 188 189 238 254 249 248 254 264 275 280 283 287 291 299 310 318 326 332 334 336 338 340
272 268 265 263 260 258 257 253 248 243 239 237 237 236 236 235 233 231 230 229 226 223 221 219 218 217 215 214 214 213 213 213 212 212 211 211 211 212 213 213 213 212 212 213 213 213 213 213 213 212 210 209 209 209 209 208 207 208 207 205 205 204 203 200 197 214 250 258 259 263 271 277 281 283 285 287 298 312 319 326 332 334 336 339 338
286 276 270 266 263 262 262 260 256 251 245 241 240 238 237 236 234 232 231 229 227 225 223 220 219 217 215 214 213 213 213 213 212 211 211 210 210 210 211 211 211 210 210 211 212 211 211 211 212 211 209 208 210 210 211 210 209 209 209 209 209 208 207 209 207 209 233 255 264 267 272 277 280 285 287 288 293 302 311 321 330 332 335 336 334
312 296 283 276 271 267 265 262 259 254 250 246 244 242 239 237 234 233 231 229 227 226 224 222 220 217 215 214 213 213 214 213 212 211 211 211 210 210 210 210 210 210 211 211 210 210 210 210 211 211 208 207 208 210 210 210 212 212 212 212 212 212 211 211 214 215 221 240 256 263 271 280 284 287 289 289 291 296 305 316 323 327 330 331 330
334 320 304 290 281 273 268 264 260 256 253 251 249 246 242 238 236 234 231 229 227 226 224 221 219 217 215 215 214 214 214 213 212 211 211 211 210 210 209 209 210 210 210 210 210 210 210 210 210 209 207 206 207 209 210 210 212 213 215 215 213 213 212 212 215 218 219 232 251 267 277 283 284 285 285 288 295 303 311 317 321 324 325 324 325
345 335 321 302 288 279 271 266 262 259 257 256 253 250 244 240 237 235 232 230 228 226 224 222 219 218 217 217 216 215 214 213 213 212 211 211 210 210 210 210 210 209 209 210 210 211 211 211 211 209 208 208 208 209 210 210 212 214 215 215 213 211 210 210 212 213 219 231 250 268 277 279 277 277 284 296 305 313 318 321 322 321 320 320 320
349 345 336 321 304 291 281 274 268 265 262 260 256 252 247 242 238 236 233 231 228 226 225 223 221 220 219 218 217 216 214 214 214 213 212 210 209 209 209 209 209 209 209 209 210 211 211 211 211 211 211 212 212 211 211 210 211 214 215 213 211 208 207 208 208 210 219 232 247 260 269 274 274 276 296 315 319 322 322 318 317 317 319 319 318
350 348 345 338 327 315 302 290 280 274 269 264 259 254 249 244 240 237 234 231 230 228 226 225 224 221 220 219 218 217 216 215 214 213 212 210 209 208 208 208 207 207 208 209 209 210 210 211 212 213 214 214 214 214 214 212 210 210 212 211 209 208 205 203 202 206 216 229 241 253 261 270 274 283 308 326 328 327 322 315 311 312 315 316 316
349 349 348 343 336 328 318 306 294 284 276 269 262 257 251 247 243 238 235 233 231 229 227 226 224 221 220 219 218 217 216 216 215 213 211 210 209 209 208 207 206 206 206 206 207 208 209 210 211 213 214 214 215 216 216 216 214 211 210 208 207 205 201 198 197 200 209 221 235 249 256 262 271 287 309 322 319 316 315 313 309 309 313 314 313
349 350 350 347 343 338 331 320 306 293 281 272 266 261 255 249 244 240 237 234 232 230 227 225 223 221 219 218 217 217 218 218 217 215 213 211 209 208 208 208 207 205 204 203 204 206 207 208 209 211 212 212 213 215 215 216 217 218 216 213 210 204 197 192 191 196 204 213 227 241 248 256 269 285 295 305 312 312 313 314 310 312 318 316 315
347 348 348 348 347 344 340 331 317 301 285 275 268 263 257 252 246 241 238 235 232 229 227 225 223 221 218 217 217 218 219 219 218 216 215 213 210 208 207 207 206 206 205 203 202 203 204 206 207 208 209 209 210 211 212 213 214 215 217 218 215 209 201 193 188 194 204 213 224 234 240 251 266 277 288 301 310 311 311 311 311 314 318 317 316
344 344 345 346 347 346 342 337 329 315 299 285 274 266 260 253 247 243 239 236 233 229 227 226 224 221 218 217 218 219 220 220 219 217 215 214 212 210 208 207 206 205 205 204 203 202 201 203 204 205 206 206 206 205 206 208 211 211 211 210 209 210 210 203 193 192 201 211 220 229 236 246 256 264 283 299 306 307 307 309 309 309 308 308 308
342 341 342 344 345 346 344 341 337 330 322 308 292 278 266 258 251 246 242 238 234 230 228 226 224 222 218 217 218 219 220 220 219 218 215 214 213 212 209 208 207 206 205 204 203 201 200 200 199 201 202 202 202 201 200 199 201 203 204 202 203 206 207 205 202 203 210 217 224 230 235 235 242 263 282 293 295 294 297 302 304 303 303 306 305
340 340 340 341 343 344 344 342 339 336 333 326 311 293 276 266 258 251 245 239 234 231 230 227 225 223 220 219 219 219 220 220 218 217 215 213 213 212 210 209 208 207 206 205 203 202 202 200 198 198 199 199 199 199 196 193 191 192 196 199 202 204 203 203 208 214 220 224 228 233 235 236 251 274 285 286 283 283 287 299 308 309 306 303 300
338 338 339 339 340 342 341 340 338 336 334 331 322 305 286 273 263 255 247 240 235 233 231 229 227 224 222 220 220 220 220 219 217 216 214 212 212 212 210 209 208 208 207 206 204 204 204 202 200 198 198 197 198 198 195 191 189 190 195 200 203 204 203 204 205 210 216 222 227 233 241 254 267 275 281 284 283 285 289 294 298 301 303 302 299
335 336 337 337 337 338 338 336 334 332 332 330 324 313 298 283 270 259 250 243 238 236 234 232 229 227 224 221 221 221 221 218 215 213 210 208 208 209 209 208 207 206 206 205 204 204 203 202 201 199 198 196 198 199 196 192 189 191 195 199 201 203 205 207 208 211 216 219 225 235 248 263 266 266 276 282 282 286 290 288 290 297 304 304 299
331 332 332 332 333 333 333 332 330 329 328 325 322 316 307 294 281 268 253 245 240 236 235 233 231 228 225 222 221 221 220 217 214 210 206 204 205 206 206 206 206 205 205 204 202 202 202 203 203 201 199 198 197 196 195 193 191 193 196 197 199 203 208 210 209 212 219 222 226 234 242 251 258 265 272 274 278 287 291 291 294 300 305 302 297
328 328 326 326 326 326 327 327 326 325 323 320 318 315 310 302 291 278 261 250 245 240 237 234 232 229 226 224 222 221 219 216 212 207 203 202 204 204 202 201 202 203 203 202 202 201 201 203 204 203 201 199 196 192 190 192 193 194 195 194 195 202 206 205 205 212 217 217 216 220 234 248 254 257 258 259 270 283 286 289 292 293 290 284 285
325 324 322 321 320 320 321 322 323 322 319 316 313 311 308 303 297 285 269 257 250 244 239 234 232 230 227 226 224 221 220 216 209 204 201 200 203 203 199 197 199 200 199 198 199 199 200 202 204 205 204 200 194 189 187 191 195 195 192 190 193 201 204 203 207 211 206 204 211 224 240 248 247 250 259 267 279 289 291 293 291 284 279 276 278
322 321 319 318 317 316 317 318 319 318 316 313 310 307 303 300 295 286 274 263 255 248 241 234 231 229 227 225 224 221 220 216 209 204 201 200 203 202 197 196 198 197 195 195 195 196 198 199 199 201 202 199 194 188 188 193 196 193 189 189 194 199 202 204 206 205 205 211 223 233 238 243 248 260 274 285 295 301 301 299 294 281 275 276 277
319 318 317 316 314 314 315 316 316 315 314 312 308 304 300 295 290 282 274 265 256 249 243 236 232 229 226 225 223 220 219 217 211 206 203 203 205 203 199 198 199 196 194 195 195 194 194 193 193 194 197 198 195 190 190 193 195 193 192 194 197 197 198 201 201 202 212 221 226 229 234 244 257 270 283 293 299 304 303 301 299 287 274 274 275
318 317 316 313 311 312 314 315 314 312 311 310 306 301 297 292 285 277 269 261 253 247 243 238 234 231 227 225 223 221 219 217 213 208 205 206 208 206 202 202 201 197 194 194 196 196 194 191 191 191 192 194 194 192 191 192 193 195 197 197 197 197 198 203 204 206 213 218 223 234 245 256 270 281 292 298 301 305 306 306 304 293 279 272 270
317 315 312 309 308 309 311 311 311 310 308 306 302 296 292 286 279 271 262 254 249 244 241 237 233 231 228 224 222 220 218 217 214 210 207 207 209 208 204 204 203 199 196 196 197 196 194 192 191 189 187 189 190 191 192 192 193 196 198 196 196 198 200 204 204 204 211 219 229 243 256 267 280 290 297 302 306 308 308 307 301 291 282 278 274
314 311 309 307 306 307 308 307 306 304 302 300 295 289 284 279 272 265 256 247 243 240 236 230 226 225 225 224 222 218 215 214 215 213 209 207 208 206 202 202 204 201 199 200 198 195 195 194 191 187 185 187 189 190 191 192 192 195 196 195 195 196 198 200 199 203 214 225 235 249 261 272 284 295 301 304 308 307 305 302 296 290 286 284 284
310 307 305 304 304 305 306 304 301 299 298 294 287 280 276 270 263 257 249 240 237 235 232 226 222 222 224 224 223 219 213 211 212 213 211 209 209 205 198 195 199 201 200 199 198 196 196 194 190 186 185 185 186 187 189 192 194 194 193 192 193 195 197 200 202 209 219 228 238 251 264 276 287 297 301 304 306 305 302 299 297 296 296 295 294
306 304 302 301 302 304 304 302 300 298 296 290 281 274 268 261 254 250 244 236 234 234 230 225 222 222 224 226 224 219 213 210 209 210 210 211 214 212 201 191 191 196 198 198 196 195 193 189 185 185 187 188 188 187 189 191 190 187 186 190 194 198 202 205 209 214 221 229 239 251 266 280 289 295 299 302 303 302 302 301 301 302 304 303 301
303 301 299 298 299 300 300 298 297 296 294 288 280 272 265 257 250 245 239 233 231 231 230 227 223 220 222 226 223 215 211 210 209 206 205 207 213 216 208 195 188 189 191 192 190 187 184 183 185 187 188 188 187 185 185 184 180 179 184 192 199 205 209 213 215 217 222 227 235 251 268 279 286 293 298 301 302 303 304 304 301 301 304 304 299
299 296 295 295 295 294 293 292 291 292 290 286 279 270 263 254 246 242 240 234 229 228 227 225 224 222 219 221 217 208 206 209 210 207 204 202 204 208 205 195 188 185 184 183 181 178 175 176 180 183 182 180 180 181 182 181 180 183 190 196 201 206 209 209 211 213 217 224 236 253 269 279 285 294 299 300 302 306 309 307 302 300 302 301 295
296 293 292 293 291 290 289 286 285 286 285 283 280 273 265 257 250 247 247 242 237 234 231 228 227 225 221 218 211 202 203 212 214 210 207 202 200 202 200 192 187 185 180 176 171 168 167 169 172 176 177 175 175 178 182 184 186 191 197 201 204 206 205 205 207 210 213 224 240 252 267 279 286 292 298 299 301 307 311 309 303 300 299 296 289
291 290 290 290 288 289 289 286 284 283 281 279 279 277 272 265 256 252 252 250 246 241 239 237 236 231 226 224 219 213 217 221 216 208 205 203 202 202 200 193 186 181 175 171 168 166 167 169 171 173 174 174 175 178 182 187 190 192 195 200 203 204 203 204 204 203 207 218 234 249 264 277 285 292 297 298 302 308 309 305 299 296 295 293 289
286 285 286 286 286 287 286 283 283 282 278 275 274 275 275 271 261 253 250 251 250 245 240 240 239 234 229 228 226 223 224 223 213 202 202 203 202 204 201 192 184 178 172 168 167 168 169 171 173 174 176 178 179 182 185 187 190 191 191 195 200 202 203 201 197 199 209 219 232 250 265 276 285 293 297 298 301 303 303 300 296 293 293 291 288
281 281 282 283 284 284 281 278 278 277 274 272 270 267 268 269 266 258 251 248 247 245 240 238 237 233 229 226 224 221 219 215 207 202 202 201 202 204 201 190 181 177 173 170 170 173 175 174 174 176 177 179 182 185 186 187 189 191 192 194 197 199 199 197 197 203 211 221 237 253 268 281 287 293 298 299 299 297 295 294 294 294 294 292 289
276 276 278 280 281 278 272 270 270 268 267 269 269 267 265 262 261 263 257 249 246 245 242 240 237 233 229 224 220 219 216 210 204 203 202 201 201 203 201 191 180 176 174 173 173 176 177 177 176 178 180 183 185 185 186 188 190 192 195 196 196 195 195 196 201 208 216 228 245 258 271 283 289 294 298 299 295 292 291 292 293 293 293 291 291
274 274 276 276 275 270 265 265 270 273 277 278 277 274 269 262 257 259 258 251 244 242 241 240 236 233 230 225 219 215 210 206 203 202 202 201 202 202 199 191 182 179 179 178 177 175 176 178 180 182 184 186 185 184 185 188 190 191 193 195 195 193 194 197 203 212 221 230 244 257 269 281 292 299 300 298 295 292 291 292 293 293 291 291 292
276 276 277 276 275 274 274 277 280 282 282 280 276 272 267 261 253 248 245 243 239 237 236 234 231 229 227 224 219 213 207 203 201 202 202 201 201 201 196 188 184 184 182 180 178 177 177 180 183 184 185 185 184 184 185 186 189 191 192 194 194 193 196 200 205 213 222 234 246 257 270 288 302 303 297 292 290 289 289 291 293 291 290 291 292
279 278 277 276 276 277 279 279 277 275 273 271 270 271 270 263 251 242 239 238 235 235 235 232 229 227 226 224 219 212 207 204 201 203 204 202 200 199 194 186 185 183 179 176 177 178 180 183 183 183 183 183 183 184 186 186 188 191 192 193 194 194 194 197 202 209 221 236 248 259 279 294 300 299 294 289 288 288 289 292 293 291 290 291 291
280 277 276 274 273 272 272 270 269 269 269 267 265 265 267 264 254 242 236 234 231 232 234 230 223 222 223 222 218 212 208 205 203 206 207 203 201 199 194 186 182 177 172 174 177 178 179 183 183 181 182 183 183 183 184 186 186 188 189 190 191 190 190 193 200 209 223 239 253 272 288 292 294 297 295 289 289 291 291 292 293 291 291 292 292
279 278 277 277 275 273 271 270 270 268 265 261 257 254 256 257 251 240 233 230 227 228 228 222 213 209 212 214 210 207 205 202 203 208 208 204 201 199 192 184 179 174 172 175 178 177 177 180 182 181 181 182 181 181 181 183 184 186 187 187 186 187 189 193 199 210 232 252 266 276 284 290 298 303 300 291 289 291 292 292 292 291 292 293 291
282 281 281 280 279 277 275 274 274 273 269 265 261 258 254 249 241 233 229 227 225 224 221 216 212 210 209 204 197 193 193 195 200 206 205 200 200 197 188 179 173 168 168 173 176 176 176 177 179 180 179 179 179 179 180 181 182 182 183 184 184 187 191 195 202 214 233 255 265 272 284 296 303 305 302 295 292 291 290 289 290 290 292 293 293
282 281 280 280 278 276 275 274 275 278 279 277 275 273 266 253 238 230 226 223 222 221 216 213 212 209 205 198 188 184 185 191 198 202 200 196 193 188 179 171 164 161 164 169 172 175 177 176 176 177 177 177 177 177 178 179 179 179 182 186 187 188 191 197 207 218 235 256 268 275 287 298 303 304 302 299 296 292 290 289 291 291 290 291 294
280 279 280 280 277 275 274 273 271 270 270 269 268 269 266 256 242 232 225 221 220 218 214 214 213 207 201 195 188 184 186 191 196 198 194 186 178 169 164 163 161 162 166 170 171 174 176 174 173 174 173 175 176 175 174 176 178 179 184 188 190 193 199 202 210 229 250 262 273 280 288 297 303 302 301 300 298 294 291 291 292 292 291 292 298
280 279 277 276 274 271 269 267 265 264 263 262 261 260 256 249 240 232 226 222 219 216 212 212 210 203 197 193 189 187 188 190 189 183 174 166 160 155 155 158 162 167 171 172 172 174 173 170 170 172 172 174 176 175 175 177 178 181 188 192 195 202 206 206 217 242 256 264 276 286 292 300 303 301 299 299 298 295 294 293 292 292 293 297 302
278 275 272 270 267 264 262 260 260 260 258 256 257 255 249 242 235 229 224 219 214 210 208 204 199 192 191 192 191 187 183 177 170 162 154 150 149 148 152 158 163 167 169 170 171 171 169 166 168 171 173 175 175 175 177 178 180 185 192 196 202 209 213 215 229 242 253 268 282 289 294 300 303 302 302 303 299 295 295 294 292 293 297 301 303
275 270 267 265 262 260 258 256 257 258 256 256 258 255 246 236 228 221 216 211 206 203 199 194 187 183 184 188 186 175 160 153 151 148 145 145 145 148 154 159 162 163 164 164 166 167 166 166 166 167 169 171 173 174 177 179 183 190 196 200 207 215 220 229 240 248 260 274 286 293 296 300 303 303 304 304 300 297 296 294 292 296 301 303 302
275 269 265 262 259 257 255 252 251 252 253 256 258 253 239 226 218 210 203 197 193 190 186 181 174 168 163 161 156 147 141 141 142 142 142 143 145 148 153 157 158 160 161 161 161 163 165 166 166 165 166 170 172 174 179 182 186 193 201 208 216 223 233 247 253 262 274 282 289 295 296 298 303 305 305 303 301 298 295 292 293 298 302 302 300
279 273 267 262 258 255 255 254 252 251 251 252 250 238 220 208 201 194 187 181 175 167 157 147 142 140 137 135 135 135 135 137 138 138 140 141 143 145 148 150 152 154 155 156 157 159 161 163 164 166 168 171 173 177 182 185 189 197 207 219 229 238 248 254 260 271 280 283 288 293 295 300 305 307 306 305 304 299 293 291 296 302 302 299 298
289 285 282 278 273 269 266 263 257 252 249 244 228 204 183 174 168 163 159 153 144 135 128 125 126 128 129 129 131 133 134 134 136 137 139 140 141 143 145 146 148 150 151 152 155 157 159 160 164 167 170 172 175 180 183 186 193 204 216 230 246 254 258 262 266 273 278 281 285 291 296 302 306 307 308 307 303 297 293 296 302 304 301 298 299
309 308 309 312 315 314 309 302 289 254 154 122 119 119 120 123 124 123 122 121 120 119 120 120 121 122 123 125 128 131 132 132 132 134 137 140 141 142 144 145 146 149 151 153 155 157 160 162 165 169 172 174 177 180 184 191 202 212 222 243 258 262 266 270 271 273 277 278 280 288 300 307 307 306 306 302 296 293 298 303 304 302 300 298 300
336 339 346 355 5 14 25 40 54 65 76 85 89 90 95 100 101 101 103 105 107 109 113 115 116 118 121 123 126 129 131 133 133 134 136 138 139 141 143 145 146 149 152 154 155 157 161 164 167 171 173 173 176 181 186 195 208 217 233 254 263 267 272 272 272 274 275 274 278 295 309 309 305 302 300 294 291 297 304 305 302 300 299 298 300
359 3 10 17 25 32 42 52 59 65 73 82 86 87 89 91 92 96 101 102 102 103 107 111 115 118 122 125 127 128 130 133 135 137 137 138 139 141 143 145 146 149 153 155 157 159 163 165 167 170 171 172 176 183 189 198 215 232 247 257 261 266 269 267 266 270 271 274 291 306 308 303 300 296 292 290 297 306 308 304 302 300 299 298 302
16 19 21 25 30 39 47 54 59 63 70 77 82 85 88 89 90 94 98 100 101 104 107 110 113 116 120 125 128 129 130 133 136 138 138 138 139 141 143 145 148 151 154 157 159 161 164 165 166 168 170 172 176 184 196 212 230 242 250 252 255 259 262 263 266 270 274 284 297 300 298 298 297 293 289 294 307 312 309 305 303 301 299 301 305
Height
708 708 708 709 709 707 704 702 702 703 705 706 706 706 708 709 711 713 714 714 714 715 716 718 720 723 726 728 730 732 735 738 741 744 747 750 753 756 758 761 763 765 768 770 772 775 776 778 780 781 783 785 786 788 789 790 792 793 794 795 795 796 797 800 802 802 801 801 803 805 806 807 808 809 810 810 809 806 803 801 799 798 797 795 795
705 705 706 707 706 706 707 707 705 704 703 703 703 704 704 705 706 708 709 710 711 712 712 714 716 718 721 723 725 728 730 732 735 737 740 743 746 749 751 754 757 760 762 765 767 770 773 775 777 779 781 783 785 786 787 788 789 790 792 793 793 794 795 797 801 803 801 800 802 803 804 806 807 808 810 809 808 805 801 799 798 796 795 793 792
703 703 703 703 702 703 705 705 706 705 703 701 700 700 700 701 703 703 704 705 707 708 709 710 712 714 716 718 720 723 725 727 728 730 732 735 738 741 744 747 749 752 755 758 762 765 768 771 773 776 778 780 782 783 785 786 787 788 789 790 791 792 793 795 798 801 801 800 801 802 803 805 805 806 807 807 805 803 800 798 796 795 793 792 791
701 701 701 700 700 701 701 702 704 703 701 699 697 696 696 697 698 699 700 702 703 704 706 707 708 709 711 713 715 717 718 720 722 724 726 728 731 734 737 740 743 745 748 751 755 759 762 765 768 771 774 776 778 780 782 783 785 786 787 788 789 790 791 794 796 798 799 799 799 800 801 802 803 804 804 803 801 799 797 795 793 792 791 791 789
701 700 699 697 697 698 698 699 700 699 698 696 693 693 694 695 695 696 696 697 698 700 702 703 703 704 704 706 708 710 713 715 717 718 721 724 727 730 732 735 737 740 743 746 749 752 755 759 762 766 769 771 773 775 777 780 782 783 785 786 786 788 789 791 793 795 796 796 797 797 798 799 800 801 801 799 796 794 792 791 790 790 789 789 788
701 698 697 695 694 695 695 696 696 695 694 692 691 691 692 692 692 692 693 693 693 695 696 697 698 698 699 701 703 706 708 711 713 714 717 720 723 726 729 731 733 735 738 741 743 746 750 753 756 759 762 764 766 769 772 775 777 780 782 783 784 785 787 788 790 791 792 793 794 795 796 797 798 798 797 795 792 789 787 787 787 787 787 786 784
700 697 695 693 692 692 692 691 691 690 690 689 688 688 688 688 688 688 689 689 690 691 692 694 693 693 695 697 700 702 705 707 709 711 714 716 718 721 723 726 729 731 733 736 738 741 744 748 750 753 756 758 760 763 766 769 772 775 778 780 782 783 784 785 785 787 789 791 792 793 794 795 795 794 792 790 788 785 784 784 784 784 784 782 780
702 699 696 693 691 689 688 688 687 687 686 686 686 685 685 685 684 684 685 685 685 685 687 690 691 691 692 694 696 700 702 703 705 707 709 712 714 716 718 720 723 726 729 731 734 737 740 744 746 749 752 754 757 759 762 764 768 771 774 776 779 780 780 780 782 784 786 789 791 792 792 792 791 789 788 786 784 783 783 783 781 780 780 778 777
704 701 698 695 692 689 687 685 684 684 683 682 683 683 682 682 681 681 681 680 681 682 684 687 689 689 689 691 693 696 697 698 699 701 704 707 709 712 714 715 718 720 723 726 729 732 736 739 743 746 749 752 755 757 760 762 764 766 769 772 774 775 776 777 778 781 784 787 789 790 789 788 787 785 784 783 782 782 782 781 780 778 776 774 773
703 700 698 695 693 690 687 685 683 682 682 681 680 680 679 679 678 677 677 677 678 680 682 684 684 684 684 687 689 691 692 693 694 696 698 700 704 707 710 713 715 717 719 722 724 728 731 735 738 742 746 749 752 754 757 760 762 763 765 767 770 771 771 772 774 777 781 784 786 786 786 784 782 781 781 781 781 781 780 779 777 775 772 770 768
703 701 699 697 694 692 689 686 684 683 681 680 679 677 676 675 674 673 674 674 675 677 679 679 679 678 679 681 683 685 686 688 690 692 694 696 699 702 705 708 711 714 715 717 719 722 726 730 734 738 741 743 746 750 753 756 758 760 762 765 767 767 767 767 769 773 777 780 782 782 781 779 778 778 778 779 779 779 779 778 776 773 771 768 766
703 701 699 697 695 693 691 688 685 682 680 678 676 675 674 673 671 671 671 671 672 673 674 675 675 675 674 675 677 679 681 684 687 689 691 693 696 698 701 703 705 708 710 713 715 718 721 725 729 732 735 738 741 745 748 752 754 756 759 762 764 764 763 762 764 768 773 776 777 777 776 775 775 776 776 777 777 777 777 776 774 772 770 768 766
703 700 698 696 693 690 688 686 683 680 677 675 673 672 672 670 668 668 667 668 669 670 670 671 672 671 670 670 671 673 676 680 682 685 688 690 692 695 697 699 701 703 705 708 711 713 715 719 723 727 731 734 737 740 744 747 750 753 756 759 761 761 760 760 761 764 768 771 773 773 772 771 772 773 774 775 775 775 774 773 772 770 768 768 766
700 698 696 694 691 688 685 682 679 676 674 672 670 669 668 667 666 665 665 666 667 667 669 669 669 668 667 667 668 670 672 675 678 682 685 687 689 692 695 697 698 700 702 704 706 708 710 713 717 721 725 729 732 735 739 742 746 749 753 756 757 757 757 757 759 762 765 767 768 768 768 768 769 771 772 773 772 772 771 770 769 768 766 766 765
696 694 691 689 688 686 683 681 678 675 673 670 669 667 666 665 664 663 663 663 664 665 666 667 666 666 666 666 666 666 668 671 675 678 681 684 687 690 692 695 696 698 700 702 704 705 707 710 712 716 720 724 726 730 733 737 741 745 749 751 752 752 752 753 755 758 761 763 764 764 765 765 767 768 769 770 770 769 769 767 766 765 764 763 761
696 693 689 686 684 683 681 679 677 675 673 670 668 667 666 664 663 663 662 662 662 663 664 664 664 664 664 664 664 664 665 668 670 673 677 680 684 687 689 691 693 695 696 698 700 703 705 708 711 714 717 720 722 726 729 733 737 741 744 746 747 747 747 749 751 754 757 759 761 761 762 763 764 766 767 767 767 767 765 764 763 763 762 760 757
698 695 691 688 684 682 680 678 675 673 671 669 668 666 665 664 662 662 661 659 659 660 660 661 661 661 661 661 661 662 663 664 667 669 673 676 679 682 685 688 691 693 694 695 697 699 702 705 708 711 714 717 720 724 727 730 734 737 740 742 742 743 744 746 749 752 755 756 757 758 759 761 762 763 764 765 764 764 762 760 760 760 760 758 754
699 696 693 691 688 684 682 679 675 672 670 668 667 665 663 662 661 660 659 657 656 657 657 658 658 658 658 658 659 660 661 662 664 666 668 672 674 676 679 684 688 690 693 695 696 697 699 702 705 708 710 714 717 721 724 727 730 733 735 737 738 739 741 744 747 750 751 752 753 754 756 757 758 759 760 761 761 761 759 757 757 757 757 757 754
699 696 693 691 688 685 681 679 675 673 671 669 667 665 663 661 659 658 658 656 656 655 655 655 655 655 655 655 657 658 659 660 662 663 665 669 670 672 675 679 683 686 689 692 694 695 697 699 702 705 708 712 715 718 721 723 726 728 730 732 734 736 738 742 745 746 747 748 749 750 751 752 753 755 756 756 757 756 755 754 754 753 753 753 752
697 695 692 689 686 683 680 677 675 673 671 669 667 665 663 661 659 657 656 655 655 655 654 653 652 651 652 652 654 655 656 657 659 661 663 666 667 668 671 675 678 681 685 688 690 692 694 696 699 703 706 710 713 716 719 721 722 725 726 728 730 733 737 740 742 743 743 744 745 747 748 748 749 750 751 752 753 753 752 751 750 750 750 749 749
695 692 689 686 683 680 678 676 674 671 670 667 665 663 662 660 659 657 655 655 655 655 653 652 650 648 648 649 650 652 652 654 656 659 661 663 665 665 667 670 673 677 681 684 686 688 689 691 695 699 703 707 711 714 717 719 721 722 723 725 728 731 735 737 737 738 739 740 742 744 745 745 745 746 748 748 749 749 749 748 748 747 747 746 746
691 689 686 683 681 678 676 674 672 670 667 665 663 660 659 659 658 656 655 654 654 653 651 650 649 647 646 646 647 648 649 650 653 655 658 661 662 661 663 666 670 673 676 679 682 684 686 688 692 696 700 704 708 712 715 717 718 719 721 724 727 730 732 732 733 734 735 737 739 740 741 742 742 743 744 745 746 746 746 746 745 745 744 744 744
688 685 682 680 678 676 674 672 670 667 665 663 661 658 656 656 655 654 654 653 652 651 649 647 647 646 645 644 644 645 646 648 649 651 653 657 659 660 661 665 668 670 673 676 678 681 683 686 690 695 699 703 707 710 713 715 716 717 719 723 726 727 727 728 729 730 732 734 736 737 737 738 738 739 741 741 742 743 743 743 743 743 742 742 742
686 682 679 677 674 672 670 668 666 665 663 660 658 655 652 652 652 651 651 650 650 648 646 645 645 644 643 643 642 642 643 645 647 648 649 652 655 657 660 663 666 668 671 674 677 679 682 686 690 694 698 702 705 708 711 712 714 715 718 721 723 723 723 724 726 728 730 732 733 733 734 735 736 737 738 738 739 740 741 741 741 740 740 738 737
682 679 676 673 670 668 666 663 661 660 659 657 655 651 649 648 648 648 648 648 647 645 644 642 641 640 639 640 640 640 641 641 643 646 648 650 651 653 655 658 662 666 670 674 676 679 683 687 691 694 698 701 704 706 708 710 713 715 717 719 719 719 721 722 724 726 727 729 729 730 731 732 733 735 735 735 737 737 738 738 738 737 736 734 733
678 675 672 669 666 664 661 658 656 655 654 653 650 647 645 645 644 644 645 644 643 642 640 638 636 635 635 635 636 638 639 639 639 641 645 649 651 652 652 652 655 660 664 669 674 678 683 688 692 695 698 700 703 704 706 709 712 714 715 715 716 717 719 720 722 723 724 725 726 727 729 730 731 732 732 733 734 735 735 735 734 733 732 730 728
675 672 668 665 663 661 658 655 652 650 649 648 645 642 640 640 640 640 640 639 638 637 636 634 632 630 629 631 632 634 635 636 637 637 639 643 648 651 652 652 653 655 658 662 668 673 679 685 690 694 697 700 701 703 705 708 710 710 711 713 715 717 718 719 720 721 721 722 723 724 726 727 728 729 730 731 732 733 733 733 731 730 729 728 725
673 669 664 662 660 658 656 654 650 647 645 643 641 638 635 635 635 633 633 633 631 630 629 628 626 623 623 625 628 630 631 632 632 633 634 636 640 645 648 650 651 653 655 659 664 669 674 681 688 692 695 696 698 700 703 706 707 708 709 712 714 716 717 718 718 717 717 718 720 721 723 724 726 727 728 729 730 730 731 730 729 727 726 726 723
669 665 660 658 656 653 652 650 647 644 640 637 634 631 629 629 628 626 625 625 624 624 623 621 618 617 618 619 621 624 626 624 623 626 629 632 635 638 641 644 646 648 651 656 662 667 671 676 682 687 690 692 695 698 701 703 705 707 708 710 712 714 715 715 714 714 714 715 717 718 720 722 723 725 726 726 727 727 727 727 726 724 724 724 721
665 659 656 653 650 648 647 644 641 639 635 631 628 625 623 623 622 620 618 618 618 618 617 615 613 613 613 612 613 616 617 617 619 623 626 629 633 635 637 640 643 646 650 653 657 662 665 669 674 678 682 686 689 693 697 699 702 704 706 709 711 712 712 712 711 711 711 713 714 716 718 720 721 722 723 723 723 724 724 724 724 723 722 721 718
660 654 651 648 646 645 643 638 635 633 630 627 624 621 618 616 615 614 613 613 613 613 612 611 610 609 608 608 609 611 614 616 619 621 622 625 629 632 635 638 640 644 648 651 654 657 661 664 669 673 676 680 683 687 691 694 697 701 704 707 709 710 710 709 708 708 709 710 712 714 716 718 719 719 720 721 721 721 722 722 722 721 719 718 715
656 649 645 643 642 641 638 634 631 628 624 622 620 617 614 611 608 607 607 608 608 608 607 606 606 604 604 604 605 607 611 614 616 617 619 622 625 628 632 635 638 642 645 647 650 654 657 659 664 668 672 676 679 682 685 689 693 697 700 703 705 706 706 705 705 706 707 708 711 713 714 715 716 717 717 718 718 719 720 720 719 718 716 714 712
651 645 641 639 637 636 633 629 625 622 619 616 614 612 610 607 603 601 601 602 602 603 602 602 601 600 599 599 600 602 605 609 612 614 616 618 621 625 628 631 634 638 641 643 646 651 654 657 661 665 668 671 674 677 681 684 688 692 696 699 701 702 702 702 702 703 705 707 709 710 712 713 714 714 715 715 716 717 717 717 716 714 713 710 707
646 641 637 635 633 630 627 623 620 617 615 613 610 607 605 602 599 598 597 597 597 598 597 597 596 595 595 595 596 598 601 605 608 611 613 615 617 621 625 629 632 634 635 638 642 646 651 655 658 661 664 667 669 673 677 681 685 689 692 695 697 698 699 699 700 702 703 705 707 708 709 710 711 711 712 713 714 715 714 713 712 711 710 707 704
640 636 633 631 628 624 621 620 618 616 614 612 608 605 601 597 595 593 592 592 592 592 592 591 590 590 590 591 592 594 597 600 604 607 609 611 614 618 622 625 627 629 631 634 638 642 646 650 653 656 659 662 665 669 673 677 681 685 689 691 693 695 696 697 699 700 702 703 705 705 706 707 708 709 710 712 712 712 710 709 709 707 706 704 701
633 629 627 626 624 620 617 616 614 613 611 608 604 600 596 592 589 588 587 587 587 587 587 587 586 586 586 587 588 590 593 597 600 603 605 607 609 612 615 616 619 623 627 631 635 639 643 646 649 652 656 659 662 666 670 674 678 682 685 688 689 691 693 695 697 699 700 701 702 702 703 704 705 707 709 709 709 709 708 706 705 704 703 701 698
625 622 619 618 617 614 610 607 606 605 603 600 597 594 590 586 584 582 581 581 581 582 583 583 583 583 583 583 584 587 590 594 598 601 603 604 606 607 609 611 615 620 624 629 634 637 641 645 647 650 654 657 661 665 669 673 676 679 682 684 686 688 691 693 695 696 697 698 699 699 701 702 703 705 706 706 706 706 704 703 702 700 699 698 694
617 614 612 611 609 605 602 599 597 596 594 591 588 586 583 580 578 577 576 576 576 577 578 579 579 579 579 579 581 584 587 592 596 599 600 601 602 603 605 609 614 618 622 628 632 635 640 643 646 649 653 656 660 664 667 671 674 677 679 681 684 687 689 691 692 694 694 695 696 697 698 700 700 701 702 703 702 702 701 700 699 697 694 693 690
610 608 606 605 602 599 596 593 591 588 586 583 580 578 575 572 571 571 571 571 572 573 574 574 575 575 574 576 578 581 585 589 592 594 595 596 597 598 602 606 611 616 621 627 631 635 639 643 646 650 653 656 660 663 666 669 672 674 677 680 682 685 687 689 690 691 692 692 694 695 696 697 698 698 699 699 698 698 698 697 696 694 691 687 684
605 602 600 599 597 594 591 589 586 584 581 578 576 573 570 567 566 566 566 567 567 568 569 570 570 570 571 573 574 577 580 584 587 589 591 591 593 595 599 603 608 614 619 625 630 634 638 642 646 651 654 657 660 662 664 667 670 672 676 679 681 683 685 687 688 689 690 690 691 692 693 694 695 695 695 695 695 695 695 694 693 691 688 683 679
599 597 595 593 592 589 587 584 582 580 578 575 572 570 567 565 563 562 562 563 563 564 565 566 566 567 569 570 572 574 577 580 583 586 587 589 590 592 596 600 606 612 618 623 628 632 637 642 647 651 655 658 660 662 663 666 668 671 674 677 679 681 683 685 686 687 687 688 689 690 691 691 692 692 691 691 692 692 692 691 689 686 683 680 677
594 592 590 588 586 584 582 579 577 575 573 570 568 565 563 561 560 560 560 560 561 561 563 564 565 566 567 568 571 574 576 578 581 583 585 588 590 593 597 601 605 611 617 622 626 631 637 642 647 651 654 656 659 660 662 664 667 670 673 675 677 679 681 682 684 684 685 686 687 688 688 688 688 688 688 689 689 689 688 686 684 681 678 675 673
589 586 584 582 580 578 576 573 571 570 567 564 562 560 558 557 557 557 557 558 559 560 561 563 564 565 566 568 570 572 574 577 579 581 584 588 591 594 598 602 606 612 618 624 629 634 638 643 647 650 654 656 658 660 662 664 666 669 672 674 676 677 678 680 681 682 684 684 684 685 685 685 685 685 686 686 686 685 684 682 679 676 674 671 669
583 581 578 576 573 571 569 567 566 564 561 559 557 555 553 553 553 554 555 556 557 558 560 561 562 564 565 567 569 571 573 576 579 583 586 590 593 596 599 602 608 614 621 627 632 636 639 643 646 649 653 656 659 661 662 663 665 668 670 672 673 675 676 678 679 680 681 681 681 681 682 682 682 683 683 682 682 681 679 677 675 672 670 667 665
577 574 572 569 566 564 563 561 560 558 556 555 553 551 550 550 550 551 552 554 555 557 558 560 561 563 564 566 568 571 573 577 581 585 588 591 594 598 601 605 611 617 624 629 634 637 639 642 644 648 652 655 658 660 662 663 665 667 668 670 671 673 674 676 677 677 678 678 679 679 680 679 680 680 679 679 679 677 675 673 671 669 666 664 661
572 569 566 563 560 558 556 554 553 552 551 549 548 547 547 547 548 549 551 552 554 556 558 559 561 563 565 567 570 573 576 579 583 587 590 593 597 601 605 610 615 621 626 631 634 636 639 642 645 649 653 656 658 660 661 662 664 665 667 668 669 671 672 673 674 675 676 676 677 677 677 677 677 677 676 675 674 673 671 669 667 665 663 661 658
568 565 562 558 555 553 551 549 548 546 545 545 544 544 545 546 547 549 550 552 554 556 558 560 563 565 567 569 572 575 578 581 585 589 593 596 600 604 609 613 618 622 627 630 633 636 639 643 646 650 654 656 658 660 661 661 663 664 665 666 667 668 669 671 671 672 674 675 675 675 675 675 674 674 673 671 670 668 667 665 664 662 660 657 654
566 563 560 557 554 551 549 547 545 544 544 544 544 545 546 547 549 550 552 554 556 558 560 563 565 567 570 573 576 579 581 584 588 593 596 600 604 608 611 614 618 622 626 630 633 637 641 644 648 651 654 656 658 659 660 661 662 662 663 664 665 666 667 669 670 671 672 673 673 673 673 672 672 670 669 667 666 665 663 662 660 658 656 653 650
566 563 560 557 555 552 550 549 547 547 546 547 547 548 549 550 552 554 555 557 560 562 564 566 569 571 574 576 579 582 585 587 591 596 600 603 606 609 612 615 619 623 627 631 635 639 643 646 649 652 654 656 657 658 659 660 660 661 661 662 663 664 666 667 668 669 670 671 671 670 670 669 668 667 665 664 663 662 661 659 657 654 652 649 646
568 565 563 560 558 556 554 553 552 551 551 551 551 552 554 555 556 558 560 561 564 566 568 570 573 575 577 580 582 585 588 590 594 597 601 605 608 611 614 617 621 626 630 634 637 641 644 647 650 652 654 655 656 657 657 658 658 659 660 661 662 664 665 666 667 668 668 668 668 667 667 666 665 663 662 662 661 659 658 656 653 650 648 645 643
570 568 566 564 562 560 559 557 557 556 556 556 556 557 558 559 561 563 564 566 568 570 572 574 577 579 581 583 586 588 590 593 597 600 603 606 610 614 617 621 624 628 632 636 639 643 645 648 650 651 653 653 654 655 656 656 657 658 660 661 662 663 664 665 665 665 665 665 665 665 664 663 662 660 659 659 658 656 654 652 649 647 644 642 639